Home > Weather > Temple > Past weeks

Flag for USA Past Weather in Temple, Texas, USA — Yesterday and Last 2 Weeks

Now
77 °F

Passing clouds.


Feels Like: 79 °F
Forecast: 70 / 82 °F
Wind: 7 mph from North

Location: Fort Hood AAF Airport

Current Time: May 31, 2016 at 3:01:13 PM

Latest Report: May 31, 2016 at 1:58 PM


Visibility: 9 mi

Pressure: 29.80 "Hg

Humidity: 83%

Dew Point: 72 °F

Location of TempleLocation

Past Weather in Temple — Graph

°F

Temple Temperature Yesterday

Maximum temperature yesterday: 86 °F (at 4:58 PM)
Minimum temperature yesterday: 65 °F (at 6:58 AM)
Average temperature yesterday: 75 °F

High & Low Weather Summary for the Past Weeks

 TemperatureHumidityPressure
High89 °F (May 28, 3:58 PM)100% (May 17, 6:03 AM)30.11 "Hg (May 17, 6:03 AM)
Low59 °F (May 19, 7:58 AM)48% (May 30, 2:58 PM)29.64 "Hg (May 27, 12:58 AM)
Average72 °F86%29.91 "Hg
* Reported May 16 1:03 PM — May 31 1:58 PM, Temple, Weather by CustomWeather, © 2016

Note: Actual official high and low records may vary slightly from our data, if they occured in-between our weather recording intervals... More about our weather records

Advertising

Temple Weather History for the Previous 24 Hours

Scroll right to see more
 ConditionsComfort  
Time TempWeatherWind HumidityBarometerVisibility
1:58 PM
Tue, May 31
77 °FPassing clouds.7 mph83%29.80 "Hg9 mi
1:03 PM79 °FBroken clouds.10 mph79%29.84 "Hg10 mi
12:58 PM79 °FThundershowers. Broken clouds.13 mph79%29.81 "Hg10 mi
11:58 AM81 °FPartly sunny.7 mph74%29.84 "Hg10 mi
11:03 AM79 °FMostly cloudy.7 mph79%29.89 "Hg10 mi
10:58 AM78 °FMostly cloudy.6 mph82%29.87 "Hg10 mi
9:58 AM75 °FOvercast.6 mph89%29.87 "Hg10 mi
8:58 AM75 °FOvercast.8 mph90%29.86 "Hg9 mi
7:58 AM74 °FOvercast.7 mph92%29.85 "Hg9 mi
6:58 AM73 °FOvercast.8 mph93%29.86 "Hg10 mi
5:58 AM73 °FOvercast.8 mph94%29.85 "Hg10 mi
4:58 AM73 °FLow clouds.7 mph94%29.83 "Hg10 mi
3:58 AM73 °FLow clouds.7 mph95%29.83 "Hg10 mi
2:58 AM72 °FPassing clouds.8 mph97%29.86 "Hg10 mi
1:58 AM72 °FClear.6 mph95%29.87 "Hg10 mi
12:58 AM73 °FClear.7 mph89%29.87 "Hg10 mi
11:58 PM
Mon, May 30
74 °FClear.8 mph83%29.88 "Hg10 mi
10:58 PM74 °FClear.7 mph79%29.89 "Hg9 mi
9:58 PM75 °FClear.6 mph73%29.88 "Hg9 mi
8:58 PM78 °FSunny.7 mph66%29.86 "Hg8 mi
7:58 PM82 °FPassing clouds.9 mph58%29.86 "Hg10 mi
6:58 PM84 °FScattered clouds.12 mph54%29.85 "Hg9 mi
5:58 PM86 °FPassing clouds.8 mph51%29.85 "Hg9 mi
4:58 PM86 °FSunny.6 mph49%29.87 "Hg9 mi
3:58 PM85 °FSunny.3 mph49%29.90 "Hg10 mi
Weather by CustomWeather, © 2016

See weather overviewHow to use our weather pages